Location: *
(28.2408°N, 53.4600°E)
Time: 05:59:36
(UTC+00:00)

FALCON 9 R/B - Pass Details

Date: 22 September 2019
Orbit: 284 x 10171 km, 34.5° (Epoch: 17 October)

Event Time Altitude Azimuth Distance (km) Brightness Sun altitude
Rises 16:37:00 0° 286° (WNW) 14,542 9.7 -29.8°
Reaches altitude 10° 16:54:05 10° 288° (WNW) 12,065 8.9 -33.4°
Maximum altitude 17:34:43 89° 205° (SSW) 2,599 4.4 -41.5°
Enters shadow 17:35:34 83° 120° (ESE) 2,476 4.2 -41.7°
